Location: River House Observatory
(37.8577°N, 76.3548°W)
Time: 01:27:01
(UTC-04:00)

NOSS 3-1 (C) - Visible Passes

Search period start: 25 September 2016 00:00
Search period end: 05 October 2016 00:00
Orbit: 843 x 1366 km, 63.4° (Epoch: 22 September)

Date Brightness Start Highest point End Pass type
(mag) Time Alt. Az. Time Alt. Az. Time Alt. Az.
25 Sep 6.2 01:54:19 11° NNE 01:54:19 11° NNE 01:54:35 10° NNE visible
25 Sep 5.8 03:41:42 14° NNW 03:41:42 14° NNW 03:44:00 10° N visible
26 Sep 5.9 02:57:50 15° N 02:57:50 15° N 02:59:23 10° N visible
27 Sep 6.2 02:13:56 12° NNE 02:13:56 12° NNE 02:14:33 10° NNE visible
28 Sep 6.0 03:17:26 11° NNW 03:17:26 11° NNW 03:18:24 10° N visible
29 Sep 6.2 02:33:32 11° N 02:33:32 11° N 02:34:06 10° N visible
29 Sep 6.2 06:16:37 10° N 06:19:24 12° NNE 06:22:18 10° NE visible
01 Oct 6.0 06:35:41 10° N 06:40:58 20° NE 06:46:37 10° E visible
02 Oct 6.2 05:51:05 10° N 05:54:56 15° NNE 05:58:58 10° ENE visible
03 Oct 6.4 05:07:12 10° N 05:08:43 11° NNE 05:10:16 10° NE visible
04 Oct 6.0 06:10:26 10° NNW 06:16:20 24° NE 06:22:40 10° E visible
